Location: Unspecified
(0.0000°N, 0.0000°E)
Time: 05:37:03
(UTC+02:00)

GPS 2-15 Rocket1 - Visible Passes

Search period start: 18 September 2014 00:00
Search period end: 28 September 2014 00:00
Orbit: 628 x 681 km, 19.8° (Epoch: 17 September)

Date Brightness Start Highest point End Pass type
(mag) Time Alt. Az. Time Alt. Az. Time Alt. Az.
18 Sep 4.5 06:03:39 31° NNE 06:03:55 32° NNE 06:08:19 10° E visible
18 Sep 5.1 21:43:26 10° WNW 21:46:43 19° NNW 21:46:53 19° NNW visible
19 Sep 3.6 06:29:55 37° NW 06:31:40 59° NNE 06:36:34 10° E visible
19 Sep 4.6 20:25:57 10° W 20:30:01 29° NNW 20:34:05 10° NE visible
20 Sep 5.9 05:18:25 16° E 05:18:25 16° E 05:19:29 10° E visible
20 Sep 3.2 06:56:10 21° WNW 06:59:23 72° SSW 07:04:21 10° ESE visible
20 Sep 5.3 20:54:50 10° WNW 20:57:53 17° NNW 21:00:55 10° NNE visible
21 Sep 4.6 05:44:38 36° E 05:44:38 36° E 05:47:38 10° ESE visible
21 Sep 4.0 07:22:33 10° W 07:27:07 38° SSW 07:31:44 10° SE visible
21 Sep 5.7 21:25:00 10° NNW 21:25:52 10° NNW 21:26:44 10° N visible
22 Sep 3.4 06:10:50 60° S 06:10:50 60° S 06:15:20 10° ESE visible
23 Sep 4.1 06:36:59 29° SW 06:38:11 33° SSW 06:42:38 10° SE visible
24 Sep 5.8 05:25:21 15° SE 05:25:21 15° SE 05:26:17 10° ESE visible
24 Sep 4.9 07:03:06 12° WSW 07:06:02 20° SSW 07:09:36 10° SSE visible
25 Sep 5.1 05:51:25 21° SSE 05:51:25 21° SSE 05:53:31 10° SE visible
26 Sep 5.1 06:17:26 18° S 06:17:26 18° S 06:20:23 10° SSE visible
27 Sep 5.5 06:43:43 10° SSW 06:45:08 11° SSW 06:46:33 10° S visible
